User: anonymous   Login
Location: Columbia
(38.9520°N, 92.3340°W)
Time: 02:23:26
(UTC-05:00)
Language:

Meteor 1-4 Rocket - Orbit

View from above orbital plane
View from above orbital plane
View from above satellite
View from above satellite

Ground track
Ground track

The orbit data is extracted from the following two-line orbital elements,

1 04394U 70037B   15086.97775181  .00008244  00000-0  33210-3 0  9992
2 04394 081.2431 246.0341 0044983 011.4345 348.7898 15.23756934440861
Epoch (UTC): 27 March 2015 23:27:57
Eccentricity: 0.0044983
inclination: 81.2431°
perigee height: 463 km
apogee height: 525 km
right ascension of ascending node: 246.0341°
argument of perigee: 11.4345°
revolutions per day: 15.23756934
mean anomaly at epoch: 348.7898°
orbit number at epoch: 44086

The dashed part of the orbit path shows where the satellite is in the earth's shadow,  

DLR